This is the latest recevied weather packets stored in our database for station/object DD3UTS-13. If no packets are shown the sender has not sent any weather packets the latest 10 day(s).
| Time | Temp. | Humidity | Pressure | Rain* | Wind** | Luminosity | Snow |
|---|---|---|---|---|---|---|---|
| 1777829132 | 21.67° C | 36% | 1011.2 hPa | 0 mm | - | 45 W/m² | - |
| 1777828831 | 21.67° C | 35% | 1011.2 hPa | 0 mm | - | 52 W/m² | - |
| 1777828532 | 22.22° C | 35% | 1011.2 hPa | 0 mm | - | 55 W/m² | - |
| 1777828231 | 22.22° C | 36% | 1011.2 hPa | 0 mm | - | 68 W/m² | - |
| 1777827932 | 22.22° C | 36% | 1011.2 hPa | 0 mm | - | 68 W/m² | - |
| 1777827637 | 22.22° C | 36% | 1011.2 hPa | 0 mm | - | 78 W/m² | - |
| 1777827332 | 22.78° C | 35% | 1011.3 hPa | 0 mm | - | 82 W/m² | - |
| 1777827032 | 22.78° C | 35% | 1011.3 hPa | 0 mm | - | 92 W/m² | - |
| 1777826731 | 22.78° C | 36% | 1011.3 hPa | 0 mm | - | 107 W/m² | - |
| 1777826431 | 23.33° C | 36% | 1011.4 hPa | 0 mm | - | 113 W/m² | - |
| 1777826132 | 23.33° C | 36% | 1011.3 hPa | 0 mm | - | 124 W/m² | - |
| 1777825832 | 23.33° C | 35% | 1011.4 hPa | 0 mm | - | 138 W/m² | - |
| 1777825531 | 23.89° C | 33% | 1011.5 hPa | 0 mm | - | 152 W/m² | - |
| 1777825232 | 24.44° C | 32% | 1011.5 hPa | 0 mm | - | 242 W/m² | - |
| 1777824931 | 25° C | 30% | 1011.7 hPa | 0 mm | - | 226 W/m² | - |
| 1777824637 | 25.56° C | 28% | 1011.6 hPa | 0 mm | - | 187 W/m² | - |
| 1777824331 | 25.56° C | 28% | 1011.6 hPa | 0 mm | - | 251 W/m² | - |
| 1777824033 | 25.56° C | 28% | 1011.7 hPa | 0 mm | - | 378 W/m² | - |
| 1777823732 | 25.56° C | 27% | 1011.8 hPa | 0 mm | - | 444 W/m² | - |
| 1777823432 | 25.56° C | 26% | 1011.8 hPa | 0 mm | - | 355 W/m² | - |
| 1777823131 | 26.11° C | 26% | 1011.7 hPa | 0 mm | - | 413 W/m² | - |
| 1777822832 | 26.11° C | 26% | 1011.9 hPa | 0 mm | - | 410 W/m² | - |
| 1777822532 | 26.11° C | 26% | 1012 hPa | 0 mm | - | 480 W/m² | - |
| 1777822232 | 26.11° C | 25% | 1012 hPa | 0 mm | - | 465 W/m² | - |
| 1777821931 | 26.11° C | 25% | 1012 hPa | 0 mm | - | 416 W/m² | - |
* Rain latest 24 hours (hover to see other rain measurements)
** Current wind speed in m/s (hover to see current wind gust speed)